Hourly Weather Roundup
Issued by NWS Central Illinois

Home | Current Version | Previous Version | Text Only | Print | Product List | Glossary On
Versions: 1 2 3 4 5 6 7 8 9 10 11 12 13 14 15 16 17 18 19 20 21 22 23 24 25 26 27 28 29 30 31 32 33 34 35 36 37 38 39 40 41 42 43 44 45 46 47 48 49 50
000
NZUS43 KILX 180310
HWRILX

Area Weather Roundup
National Weather Service Lincoln IL
900 PM CST SUN DEC 17 2017

NOTE:  "FAIR" indicates few or no clouds below 12,000 feet, with
       no sigificant weather and/or obstructions to visibility.


CITY           SKY/WX    TMP DP  RH WIND       PRES   REMARKS
Bloomington    CLOUDY    43  40  89 S14       30.02S
Champaign      CLOUDY    43  39  86 S17       30.05F
Danville       CLOUDY    42  38  87 S12       30.04S
Decatur        CLOUDY    42  38  85 S12       30.05S
Effingham      CLOUDY    43  43  97 S6        30.10R
Flora          CLOUDY    44  43  97 S7        30.11S FOG
Galesburg      CLOUDY    43  43 100 S7        30.00S FOG
Jacksonville   CLOUDY    45  41  87 SW7       30.04R
Lacon          CLOUDY    43  40  89 CALM      29.99F
Lawrenceville  CLOUDY    43  40  89 S8        30.12F
Litchfield     CLOUDY    44  41  88 S12       30.05F
$$


CITY           SKY/WX    TMP DP  RH WIND       PRES   REMARKS
Lincoln        CLOUDY    44  42  92 S12       30.03R
Macomb         CLOUDY    44  44  97 SW10      30.02S
Mattoon        CLOUDY    42  39  89 S8        30.07S
Mt Carmel AP   CLOUDY    42  41  95 S7        30.12S
Olney-Noble AP CLOUDY    42  40  92 S9        30.11S FOG
Paris AP       CLOUDY    42  40  91 S10       30.08F
Peoria         CLOUDY    45  40  82 S7        30.00F
Pontiac        CLOUDY    43  40  88 S10       30.01F
Rantoul        CLOUDY    44  41  86 S9        30.05S
Robinson       CLOUDY    41  40  97 S6        30.12S
Springfield    CLOUDY    47  42  83 S15       30.03S
Taylorville    CLOUDY    44  40  87 S14       30.05S
$$

...REGIONAL REPORTS...


CITY           SKY/WX    TMP DP  RH WIND       PRES   REMARKS
Chicago O`Hare CLOUDY    41  30  65 SW5       29.99S
Kankakee       CLOUDY    42  37  82 S9        30.02F
Moline         CLOUDY    40  39  97 CALM      29.98S FOG
Mount Sterling CLOUDY    44  43  95 SW10      30.02S
Mount Vernon   CLOUDY    44  43  96 S9        30.11R
Pittsfield     CLOUDY    46  44  93 SW7       30.05R
Quincy         CLOUDY    45  43  93 SW9       30.02S
Rockford       CLOUDY    36  33  89 CALM      30.00F FOG
$$


CITY           SKY/WX    TMP DP  RH WIND       PRES   REMARKS
Burlington     CLOUDY    43  43 100 SW8       29.98F FOG
Cedar Rapids   FOG       36  36 100 S5        29.96S VSB 1   WCI  32
Des Moines     CLOUDY    34  29  82 W7        29.99S WCI  28
Kirksville     CLOUDY    44 N/A N/A SW8       30.01S FOG
Ottumwa        CLOUDY    39 N/A N/A CALM      29.98S FOG
St Louis       DRIZZLE   48  44  86 SW7       30.07S
$$


CITY           SKY/WX    TMP DP  RH WIND       PRES   REMARKS
Terre Haute    CLOUDY    43  38  82 S8        30.10S
Evansville     LGT RAIN  43  43 100 S5        30.14S
Indianapolis   CLOUDY    37  34  89 S7        30.09F WCI  32
Lafayette      CLOUDY    40  38  93 SW6       30.07S
Madison        CLOUDY    32  30  92 CALM      29.98F FOG
Milwaukee      CLOUDY    35  33  92 NW3       29.99R FOG
$$






USA.gov is the U.S. government's official web portal to all federal, state and local government web resources and services.